When you browse on this site, cookies collect data to enhance your experience and personalize the content and advertising you see.
Visit our Privacy Policy to learn more. By continuing to use the site, you agree to this use of cookies and data.
  • In Portugal
  • List of Countries
  • For 7 days
  • Water Temperature
  • Weather Map
  • Weather Widgets
  • user-avatar
    Login

    Hourly Weather Baalbek

    Today, 7 June, Sunday

    Time Temperature Precipitation Wind Pressure Humidity
    00:00 +24°C° 0 mm 2 mps 658 mmHg 36%
    01:00 +24°C° 0 mm 3 mps 658 mmHg 34%
    02:00 +22°C° 0 mm 3 mps 658 mmHg 32%
    03:00 +24°C° 0 mm 3 mps 658 mmHg 32%
    04:00 +23°C° 0 mm 4 mps 658 mmHg 31%
    05:00 +23°C° 0 mm 5 mps 658 mmHg 31%
    06:00 +25°C° 0 mm 5 mps 659 mmHg 28%
    07:00 +27°C° 0 mm 6 mps 659 mmHg 25%
    08:00 +29°C° 0 mm 6 mps 660 mmHg 22%
    09:00 +30°C° 0 mm 5 mps 660 mmHg 21%
    10:00 +32°C° 0 mm 4 mps 660 mmHg 19%
    11:00 +33°C° 0 mm 3 mps 660 mmHg 17%
    12:00 +33°C° 0 mm 3 mps 660 mmHg 17%
    13:00 +34°C° 0 mm 3 mps 660 mmHg 17%
    14:00 +34°C° 0 mm 3 mps 659 mmHg 17%
    15:00 +33°C° 0 mm 3 mps 659 mmHg 20%
    16:00 +31°C° 0 mm 3 mps 659 mmHg 22%
    17:00 +31°C° 0 mm 3 mps 658 mmHg 24%
    18:00 +29°C° 0 mm 2 mps 658 mmHg 29%
    19:00 +27°C° 0 mm 2 mps 658 mmHg 34%
    20:00 +25°C° 0 mm 1 mps 657 mmHg 39%
    21:00 +25°C° 0 mm 1 mps 657 mmHg 40%
    22:00 +24°C° 0 mm 1 mps 657 mmHg 41%
    23:00 +24°C° 0 mm 1 mps 657 mmHg 42%

    Tomorrow, 8 June, Monday

    Time Temperature Precipitation Wind Pressure Humidity
    00:00 +23°C° 0 mm 1 mps 657 mmHg 41%
    01:00 +23°C° 0 mm 2 mps 656 mmHg 41%
    02:00 +23°C° 0 mm 2 mps 656 mmHg 40%
    03:00 +21°C° 0 mm 2 mps 656 mmHg 41%
    04:00 +21°C° 0 mm 2 mps 656 mmHg 43%
    05:00 +22°C° 0 mm 1 mps 656 mmHg 44%
    06:00 +24°C° 0 mm 1 mps 656 mmHg 38%
    07:00 +25°C° 0 mm 1 mps 657 mmHg 33%
    08:00 +27°C° 0 mm 1 mps 658 mmHg 27%
    09:00 +28°C° 0 mm 2 mps 658 mmHg 26%
    10:00 +29°C° 0 mm 2 mps 658 mmHg 24%
    11:00 +30°C° 0 mm 3 mps 659 mmHg 23%
    12:00 +30°C° 0 mm 3 mps 658 mmHg 22%
    13:00 +32°C° 0 mm 4 mps 658 mmHg 22%
    14:00 +32°C° 0 mm 5 mps 658 mmHg 22%
    15:00 +30°C° 0 mm 5 mps 658 mmHg 24%
    16:00 +29°C° 0 mm 4 mps 658 mmHg 26%
    17:00 +28°C° 0 mm 4 mps 657 mmHg 28%
    18:00 +27°C° 0 mm 3 mps 657 mmHg 31%
    19:00 +25°C° 0 mm 2 mps 657 mmHg 34%
    20:00 +24°C° 0 mm 1 mps 657 mmHg 37%
    21:00 +23°C° 0 mm 1 mps 657 mmHg 37%
    22:00 +23°C° 0 mm 1 mps 657 mmHg 37%
    23:00 +22°C° 0 mm 1 mps 657 mmHg 37%

    Day after tomorrow, 9 June, Tuesday

    Time Temperature Precipitation Wind Pressure Humidity
    00:00 +21°C° 0 mm 1 mps 656 mmHg 38%
    01:00 +21°C° 0 mm 1 mps 656 mmHg 39%
    02:00 +18°C° 0 mm 0 mps 656 mmHg 40%
    03:00 +18°C° 0 mm 0 mps 656 mmHg 41%
    04:00 +18°C° 0 mm 0 mps 656 mmHg 42%
    05:00 +18°C° 0 mm 0 mps 656 mmHg 43%
    06:00 +22°C° 0 mm 1 mps 657 mmHg 37%
    07:00 +24°C° 0 mm 1 mps 658 mmHg 31%
    08:00 +26°C° 0 mm 1 mps 659 mmHg 25%
    09:00 +27°C° 0 mm 2 mps 659 mmHg 22%
    10:00 +28°C° 0 mm 2 mps 660 mmHg 20%
    11:00 +30°C° 0 mm 3 mps 660 mmHg 18%
    12:00 +30°C° 0 mm 3 mps 660 mmHg 19%
    13:00 +30°C° 0 mm 3 mps 660 mmHg 20%
    14:00 +30°C° 0 mm 4 mps 659 mmHg 21%
    15:00 +30°C° 0 mm 3 mps 659 mmHg 24%
    16:00 +29°C° 0 mm 3 mps 659 mmHg 27%
    17:00 +28°C° 0 mm 3 mps 659 mmHg 30%
    18:00 +27°C° 0 mm 2 mps 658 mmHg 35%
    19:00 +25°C° 0 mm 1 mps 658 mmHg 40%
    20:00 +21°C° 0 mm 0 mps 658 mmHg 45%
    21:00 +21°C° 0 mm 0 mps 658 mmHg 45%
    22:00 +20°C° 0 mm 0 mps 658 mmHg 46%
    23:00 +19°C° 0 mm 0 mps 657 mmHg 47%

    10 June, Wednesday

    Time Temperature Precipitation Wind Pressure Humidity
    00:00 +18°C° 0 mm 0 mps 657 mmHg 46%
    01:00 +18°C° 0 mm 0 mps 657 mmHg 46%
    02:00 +17°C° 0 mm 0 mps 656 mmHg 46%
    03:00 +17°C° 0 mm 0 mps 656 mmHg 45%
    04:00 +17°C° 0 mm 0 mps 657 mmHg 45%
    05:00 +17°C° 0 mm 0 mps 657 mmHg 45%
    06:00 +21°C° 0 mm 1 mps 657 mmHg 39%
    07:00 +23°C° 0 mm 1 mps 658 mmHg 33%
    08:00 +25°C° 0 mm 1 mps 659 mmHg 27%
    09:00 +27°C° 0 mm 2 mps 659 mmHg 25%
    10:00 +28°C° 0 mm 2 mps 660 mmHg 23%
    11:00 +29°C° 0 mm 3 mps 660 mmHg 20%
    12:00 +29°C° 0 mm 3 mps 660 mmHg 21%
    13:00 +30°C° 0 mm 4 mps 659 mmHg 22%
    14:00 +30°C° 0 mm 4 mps 659 mmHg 23%
    15:00 +29°C° 0 mm 4 mps 659 mmHg 26%
    16:00 +28°C° 0 mm 3 mps 658 mmHg 29%
    17:00 +28°C° 0 mm 3 mps 658 mmHg 32%
    18:00 +26°C° 0 mm 2 mps 658 mmHg 37%
    19:00 +24°C° 0 mm 2 mps 658 mmHg 42%
    20:00 +21°C° 0 mm 2 mps 657 mmHg 47%
    21:00 +21°C° 0 mm 2 mps 657 mmHg 44%
    22:00 +20°C° 0 mm 2 mps 657 mmHg 40%
    23:00 +20°C° 0 mm 2 mps 657 mmHg 36%

    11 June, Thursday

    Time Temperature Precipitation Wind Pressure Humidity
    00:00 +19°C° 0 mm 2 mps 656 mmHg 34%
    01:00 +19°C° 0 mm 2 mps 656 mmHg 32%
    02:00 +18°C° 0 mm 2 mps 656 mmHg 30%
    03:00 +19°C° 0 mm 1 mps 655 mmHg 30%
    04:00 +19°C° 0 mm 1 mps 655 mmHg 31%
    05:00 +18°C° 0 mm 1 mps 655 mmHg 31%
    06:00 +21°C° 0 mm 1 mps 656 mmHg 28%
    07:00 +23°C° 0 mm 2 mps 657 mmHg 25%
    08:00 +25°C° 0 mm 2 mps 657 mmHg 23%
    09:00 +26°C° 0 mm 3 mps 657 mmHg 23%
    10:00 +27°C° 0 mm 3 mps 658 mmHg 23%
    11:00 +28°C° 0 mm 4 mps 658 mmHg 23%
    12:00 +28°C° 0 mm 4 mps 658 mmHg 24%
    13:00 +28°C° 0 mm 5 mps 657 mmHg 25%
    14:00 +29°C° 0 mm 5 mps 657 mmHg 26%
    15:00 +28°C° 0 mm 5 mps 657 mmHg 28%
    16:00 +27°C° 0 mm 4 mps 656 mmHg 29%
    17:00 +26°C° 0 mm 4 mps 656 mmHg 31%
    18:00 +23°C° 0 mm 4 mps 655 mmHg 36%
    19:00 +21°C° 0 mm 4 mps 655 mmHg 40%
    20:00 +20°C° 0 mm 4 mps 655 mmHg 45%
    21:00 +19°C° 0 mm 3 mps 655 mmHg 44%
    22:00 +19°C° 0 mm 3 mps 655 mmHg 42%
    23:00 +18°C° 0 mm 3 mps 655 mmHg 40%

    12 June, Friday

    Time Temperature Precipitation Wind Pressure Humidity
    00:00 +18°C° 0 mm 3 mps 655 mmHg 42%
    01:00 +17°C° 0 mm 3 mps 654 mmHg 43%
    02:00 +17°C° 0 mm 3 mps 654 mmHg 44%
    03:00 +17°C° 0 mm 3 mps 654 mmHg 47%
    04:00 +17°C° 0 mm 3 mps 654 mmHg 49%
    05:00 +17°C° 0 mm 3 mps 654 mmHg 52%
    06:00 +19°C° 0 mm 4 mps 655 mmHg 45%
    07:00 +21°C° 0 mm 4 mps 655 mmHg 39%
    08:00 +23°C° 0 mm 5 mps 656 mmHg 32%
    09:00 +24°C° 0 mm 6 mps 656 mmHg 28%
    10:00 +26°C° 0 mm 7 mps 657 mmHg 25%
    11:00 +27°C° 0 mm 8 mps 657 mmHg 21%
    12:00 +27°C° 0 mm 8 mps 657 mmHg 21%
    13:00 +27°C° 0 mm 9 mps 657 mmHg 22%
    14:00 +27°C° 0 mm 9 mps 657 mmHg 23%
    15:00 +26°C° 0 mm 8 mps 656 mmHg 24%
    16:00 +24°C° 0 mm 7 mps 656 mmHg 25%
    17:00 +24°C° 0 mm 6 mps 656 mmHg 26%
    18:00 +22°C° 0 mm 5 mps 655 mmHg 30%
    19:00 +21°C° 0 mm 4 mps 655 mmHg 34%
    20:00 +19°C° 0 mm 3 mps 655 mmHg 38%
    21:00 +19°C° 0 mm 3 mps 655 mmHg 40%
    22:00 +19°C° 0 mm 4 mps 655 mmHg 42%
    23:00 +19°C° 0 mm 4 mps 655 mmHg 43%
    Show more